| time (UTC) | temp F | wind direction | speed knots | gust knots | rain 1hr in | rain 24hr in | rain mn in | humidity % | barometer mb |
| 20260901083003 | 67 | 305 | 2.6 | 3.5 | 0.00 | 0.07 | 0.00 | 100 | 997.6 |
| 20260901082837 | 67 | 305 | 2.6 | 3.5 | 0.00 | 0.07 | 0.00 | 100 | 997.6 |
| 20260901082732 | 67 | 305 | 2.6 | 3.5 | 0.00 | 0.07 | 0.00 | 100 | 997.6 |
| 20260901082232 | 67 | 336 | 3.5 | 6.1 | 0.00 | 0.07 | 0.00 | 100 | 997.5 |
| 20260901081732 | 67 | 336 | 3.5 | 6.1 | 0.00 | 0.07 | 0.00 | 100 | 997.5 |
| 20260901081234 | 67 | 325 | 3.5 | 6.1 | 0.00 | 0.07 | 0.00 | 100 | 997.5 |
| 20260901080732 | 67 | 333 | 3.5 | 6.1 | 0.00 | 0.07 | 0.00 | 100 | 997.5 |
| 20260901080232 | 68 | 304 | 3.5 | 6.1 | 0.00 | 0.07 | 0.00 | 100 | 997.5 |
| 20260901075732 | 67 | 322 | 2.6 | 7.0 | 0.00 | 0.07 | 0.00 | 100 | 997.5 |
| 20260901075232 | 67 | 302 | 2.6 | 6.1 | 0.00 | 0.07 | 0.00 | 100 | 997.4 |
| 20260901074732 | 67 | 298 | 2.6 | 3.5 | 0.00 | 0.07 | 0.00 | 100 | 997.4 |
| 20260901074232 | 67 | 273 | 2.6 | 5.2 | 0.00 | 0.07 | 0.00 | 100 | 997.4 |
| 20260901073732 | 67 | 309 | 2.6 | 4.3 | 0.00 | 0.07 | 0.00 | 99 | 997.3 |
| 20260901073232 | 68 | 298 | 2.6 | 3.5 | 0.00 | 0.07 | 0.00 | 99 | 997.4 |
| 20260901072931 | 68 | 304 | 2.6 | 3.5 | 0.00 | 0.07 | 0.00 | 100 | 997.3 |
| 20260901072733 | 68 | 304 | 2.6 | 3.5 | 0.00 | 0.07 | 0.00 | 100 | 997.3 |
| 20260901072339 | 68 | 267 | 1.7 | 5.2 | 0.00 | 0.07 | 0.00 | 100 | 997.4 |
| 20260901072232 | 68 | 267 | 1.7 | 5.2 | 0.00 | 0.07 | 0.00 | 100 | 997.4 |
| 20260901071732 | 68 | 292 | 2.6 | 3.5 | 0.00 | 0.07 | 0.00 | 99 | 997.3 |
| 20260901071412 | 68 | 284 | 2.6 | 4.3 | 0.00 | 0.07 | 0.00 | 99 | 997.3 |
| 20260901071232 | 68 | 284 | 2.6 | 4.3 | 0.00 | 0.07 | 0.00 | 99 | 997.3 |
| 20260901070732 | 68 | 279 | 1.7 | 3.5 | 0.00 | 0.07 | 0.00 | 99 | 997.3 |
| 20260901070232 | 68 | 288 | 1.7 | 3.5 | 0.00 | 0.07 | 0.07 | 99 | 997.2 |
| 20260901065733 | 68 | 311 | 1.7 | 3.5 | 0.00 | 0.07 | 0.07 | 99 | 997.2 |
| 20260901065232 | 68 | 298 | 1.7 | 2.6 | 0.00 | 0.07 | 0.07 | 99 | 997.1 |
| 20260901064925 | 68 | 301 | 1.7 | 2.6 | 0.00 | 0.07 | 0.07 | 99 | 997.1 |
| 20260901064732 | 68 | 301 | 1.7 | 2.6 | 0.00 | 0.07 | 0.07 | 99 | 997.1 |
| 20260901064339 | 68 | 298 | 1.7 | 3.5 | 0.00 | 0.07 | 0.07 | 99 | 997.1 |
| 20260901064232 | 68 | 298 | 1.7 | 3.5 | 0.00 | 0.07 | 0.07 | 99 | 997.1 |
| 20260901063732 | 68 | 306 | 1.7 | 3.5 | 0.00 | 0.07 | 0.07 | 99 | 997.1 |
| 20260901063233 | 68 | 292 | 1.7 | 2.6 | 0.00 | 0.07 | 0.07 | 99 | 997.1 |
| 20260901062733 | 68 | 289 | 1.7 | 3.5 | 0.00 | 0.07 | 0.07 | 99 | 997.1 |
| 20260901062233 | 68 | 295 | 1.7 | 3.5 | 0.00 | 0.07 | 0.07 | 98 | 997.0 |
| 20260901061734 | 68 | 296 | 1.7 | 2.6 | 0.00 | 0.07 | 0.07 | 98 | 997.0 |
| 20260901061232 | 68 | 293 | 1.7 | 2.6 | 0.00 | 0.07 | 0.07 | 98 | 997.0 |
| 20260901060934 | 69 | 304 | 1.7 | 3.5 | 0.00 | 0.07 | 0.07 | 98 | 996.9 |
| 20260901060733 | 69 | 304 | 1.7 | 3.5 | 0.00 | 0.07 | 0.07 | 98 | 996.9 |
| 20260901060234 | 69 | 294 | 1.7 | 3.5 | 0.00 | 0.07 | 0.07 | 98 | 996.9 |
| 20260901055940 | 69 | 296 | 1.7 | 3.5 | 0.00 | 0.07 | 0.07 | 98 | 997.0 |
| 20260901055733 | 69 | 296 | 1.7 | 3.5 | 0.00 | 0.07 | 0.07 | 98 | 997.0 |
| 20260901055233 | 69 | 311 | 1.7 | 4.3 | 0.00 | 0.07 | 0.07 | 98 | 997.0 |
| 20260901054733 | 69 | 293 | 1.7 | 1.7 | 0.00 | 0.07 | 0.07 | 97 | 997.0 |
| 20260901054233 | 69 | 294 | 1.7 | 2.6 | 0.00 | 0.07 | 0.07 | 97 | 997.0 |
| 20260901053838 | 69 | 307 | 1.7 | 2.6 | 0.00 | 0.07 | 0.07 | 97 | 997.0 |
| 20260901053733 | 69 | 307 | 1.7 | 2.6 | 0.00 | 0.07 | 0.07 | 97 | 997.0 |
| 20260901053233 | 70 | 288 | 1.7 | 2.6 | 0.00 | 0.07 | 0.07 | 97 | 997.2 |
| 20260901052733 | 70 | 302 | 1.7 | 3.5 | 0.00 | 0.07 | 0.07 | 97 | 997.2 |
| 20260901052233 | 70 | 298 | 1.7 | 3.5 | 0.00 | 0.07 | 0.07 | 97 | 997.2 |
| 20260901051733 | 70 | 300 | 2.6 | 5.2 | 0.00 | 0.07 | 0.07 | 97 | 997.2 |
| 20260901051233 | 70 | 276 | 2.6 | 3.5 | 0.00 | 0.07 | 0.07 | 96 | 997.3 |
| 20260901050733 | 71 | 302 | 2.6 | 4.3 | 0.00 | 0.07 | 0.07 | 96 | 997.3 |
| 20260901050233 | 71 | 300 | 2.6 | 4.3 | 0.00 | 0.07 | 0.07 | 96 | 997.2 |
| 20260901045733 | 71 | 290 | 2.6 | 6.1 | 0.00 | 0.07 | 0.07 | 96 | 997.3 |
| 20260901045233 | 71 | 291 | 2.6 | 6.1 | 0.00 | 0.07 | 0.07 | 96 | 997.4 |
| 20260901044734 | 71 | 281 | 2.6 | 4.3 | 0.00 | 0.07 | 0.07 | 97 | 997.4 |
| 20260901044233 | 71 | 298 | 2.6 | 7.8 | 0.00 | 0.07 | 0.07 | 97 | 997.3 |
| 20260901043733 | 71 | 305 | 2.6 | 6.1 | 0.00 | 0.07 | 0.07 | 97 | 997.4 |
| 20260901043233 | 71 | 300 | 2.6 | 4.3 | 0.00 | 0.07 | 0.07 | 98 | 997.3 |
| 20260901042733 | 71 | 296 | 2.6 | 4.3 | 0.00 | 0.07 | 0.07 | 98 | 997.2 |
| 20260901042233 | 71 | 305 | 2.6 | 4.3 | 0.00 | 0.07 | 0.07 | 98 | 997.3 |
| 20260901041733 | 71 | 306 | 1.7 | 7.8 | 0.00 | 0.07 | 0.07 | 99 | 997.3 |
| 20260901041233 | 71 | 294 | 0.9 | 3.5 | 0.00 | 0.07 | 0.07 | 99 | 997.3 |
| 20260901040733 | 71 | 313 | 0.9 | 1.7 | 0.00 | 0.07 | 0.07 | 99 | 997.2 |
| 20260901040233 | 71 | 313 | 0.9 | 1.7 | 0.00 | 0.07 | 0.07 | 99 | 997.2 |
| 20260901035733 | 71 | 313 | 0.9 | 1.7 | 0.00 | 0.07 | 0.07 | 99 | 997.2 |
| 20260901035233 | 71 | 313 | 0.9 | 1.7 | 0.00 | 0.07 | 0.07 | 99 | 997.2 |
| 20260901034733 | 71 | 313 | 0.9 | 1.7 | 0.00 | 0.07 | 0.07 | 99 | 997.2 |
| 20260901034233 | 71 | 313 | 0.0 | 1.7 | 0.00 | 0.07 | 0.07 | 99 | 997.0 |
| 20260901033733 | 71 | 313 | 0.0 | 1.7 | 0.00 | 0.07 | 0.07 | 98 | 997.0 |
| 20260901033233 | 71 | 313 | 0.9 | 0.9 | 0.00 | 0.07 | 0.07 | 99 | 997.0 |
| 20260901032733 | 71 | 313 | 0.9 | 1.7 | 0.00 | 0.07 | 0.07 | 99 | 997.2 |
| 20260901032233 | 71 | 313 | 0.9 | 1.7 | 0.00 | 0.07 | 0.07 | 98 | 997.1 |
| 20260901031733 | 71 | 313 | 0.9 | 1.7 | 0.00 | 0.07 | 0.07 | 98 | 997.1 |
| 20260901031235 | 71 | 313 | 0.9 | 1.7 | 0.00 | 0.07 | 0.07 | 98 | 997.0 |
| 20260901030733 | 71 | 319 | 0.0 | 1.7 | 0.00 | 0.07 | 0.07 | 98 | 996.9 |
| 20260901030233 | 71 | 9 | 0.0 | 0.9 | 0.00 | 0.07 | 0.07 | 98 | 997.0 |
| 20260901025733 | 71 | 10 | 0.0 | 0.9 | 0.00 | 0.07 | 0.07 | 98 | 997.0 |
| 20260901025233 | 71 | 10 | 0.0 | 0.9 | 0.00 | 0.07 | 0.07 | 98 | 997.1 |
| 20260901024733 | 71 | 9 | 0.0 | 0.9 | 0.00 | 0.07 | 0.07 | 98 | 997.2 |
| 20260901024233 | 71 | 10 | 0.0 | 0.9 | 0.00 | 0.07 | 0.07 | 97 | 997.2 |
| 20260901023733 | 71 | 10 | 0.0 | 0.9 | 0.00 | 0.07 | 0.07 | 97 | 997.0 |
| 20260901023233 | 71 | 164 | 0.0 | 0.9 | 0.00 | 0.07 | 0.07 | 97 | 997.1 |
| 20260901022733 | 72 | 182 | 0.0 | 0.9 | 0.00 | 0.07 | 0.07 | 97 | 997.1 |
| 20260901022233 | 72 | 171 | 0.0 | 0.0 | 0.00 | 0.07 | 0.07 | 97 | 997.0 |
| 20260901021733 | 72 | 171 | 0.0 | 0.0 | 0.00 | 0.07 | 0.07 | 97 | 997.0 |
| 20260901021233 | 72 | 171 | 0.0 | 0.0 | 0.00 | 0.07 | 0.07 | 97 | 997.1 |
| 20260901020733 | 72 | 171 | 0.0 | 0.0 | 0.00 | 0.07 | 0.07 | 97 | 997.1 |
| 20260901020233 | 72 | 171 | 0.0 | 0.9 | 0.00 | 0.07 | 0.07 | 97 | 996.9 |
| 20260901015734 | 72 | 171 | 0.0 | 0.9 | 0.00 | 0.07 | 0.07 | 97 | 997.1 |
| 20260901015233 | 72 | 171 | 0.0 | 0.9 | 0.00 | 0.07 | 0.07 | 97 | 997.0 |
| 20260901014733 | 72 | 171 | 0.0 | 0.9 | 0.00 | 0.07 | 0.07 | 97 | 997.2 |
| 20260901014233 | 72 | 171 | 0.0 | 0.0 | 0.00 | 0.07 | 0.07 | 97 | 997.2 |
| 20260901013733 | 72 | 171 | 0.0 | 0.9 | 0.00 | 0.07 | 0.07 | 96 | 997.3 |
| 20260901013233 | 73 | 130 | 0.0 | 0.0 | 0.00 | 0.07 | 0.07 | 96 | 997.3 |
| 20260901012733 | 73 | 131 | 0.0 | 0.9 | 0.00 | 0.07 | 0.07 | 96 | 997.3 |
| 20260901012233 | 73 | 131 | 0.0 | 0.0 | 0.00 | 0.07 | 0.07 | 96 | 997.2 |
| 20260901011733 | 73 | 131 | 0.0 | 0.0 | 0.00 | 0.07 | 0.07 | 96 | 997.1 |
| 20260901011233 | 73 | 130 | 0.0 | 0.9 | 0.00 | 0.07 | 0.07 | 96 | 997.1 |
| 20260901010735 | 73 | 130 | 0.0 | 1.7 | 0.00 | 0.07 | 0.07 | 96 | 997.0 |
| 20260901010234 | 73 | 153 | 0.9 | 0.9 | 0.00 | 0.07 | 0.07 | 95 | 997.0 |
| 20260901005734 | 73 | 153 | 0.9 | 1.7 | 0.00 | 0.07 | 0.07 | 95 | 996.9 |
| 20260901005234 | 73 | 157 | 0.9 | 2.6 | 0.00 | 0.07 | 0.07 | 95 | 996.7 |
| 20260901004734 | 73 | 161 | 0.9 | 2.6 | 0.00 | 0.07 | 0.07 | 95 | 996.7 |
| 20260901004234 | 73 | 130 | 0.9 | 0.9 | 0.00 | 0.07 | 0.07 | 95 | 996.7 |
| 20260901003734 | 73 | 165 | 0.9 | 2.6 | 0.00 | 0.07 | 0.07 | 95 | 996.7 |
| 20260901003234 | 73 | 148 | 0.9 | 1.7 | 0.00 | 0.07 | 0.07 | 95 | 996.7 |
| 20260901002734 | 73 | 149 | 0.9 | 2.6 | 0.00 | 0.07 | 0.07 | 94 | 996.6 |
| 20260901002234 | 73 | 161 | 0.9 | 0.9 | 0.00 | 0.07 | 0.07 | 94 | 996.7 |
| 20260901001734 | 73 | 157 | 0.9 | 1.7 | 0.00 | 0.07 | 0.07 | 94 | 996.6 |
| 20260901001234 | 73 | 146 | 0.9 | 1.7 | 0.00 | 0.07 | 0.07 | 94 | 996.6 |
| 20260901000734 | 73 | 166 | 0.9 | 1.7 | 0.00 | 0.07 | 0.07 | 94 | 996.6 |
| 20260901000234 | 73 | 156 | 0.9 | 1.7 | 0.00 | 0.07 | 0.07 | 94 | 996.5 |
| 20260831235734 | 73 | 159 | 0.9 | 2.6 | 0.00 | 0.07 | 0.07 | 93 | 996.5 |
| 20260831235234 | 73 | 159 | 0.9 | 1.7 | 0.00 | 0.07 | 0.07 | 93 | 996.6 |
| 20260831234734 | 73 | 161 | 0.9 | 1.7 | 0.00 | 0.07 | 0.07 | 93 | 996.6 |
| 20260831234234 | 74 | 157 | 1.7 | 4.3 | 0.00 | 0.07 | 0.07 | 92 | 996.6 |
| 20260831233735 | 74 | 150 | 1.7 | 4.3 | 0.00 | 0.07 | 0.07 | 92 | 996.7 |
| 20260831233234 | 74 | 158 | 1.7 | 4.3 | 0.00 | 0.07 | 0.07 | 92 | 996.7 |
| 20260831232734 | 74 | 185 | 0.9 | 3.5 | 0.00 | 0.07 | 0.07 | 92 | 996.7 |
| 20260831232234 | 74 | 155 | 0.9 | 3.5 | 0.00 | 0.07 | 0.07 | 92 | 996.7 |
| 20260831232015 | 75 | 158 | 0.9 | 2.6 | 0.00 | 0.07 | 0.07 | 92 | 996.7 |
| 20260831231734 | 75 | 158 | 0.9 | 2.6 | 0.00 | 0.07 | 0.07 | 92 | 996.7 |
| 20260831231234 | 75 | 165 | 0.9 | 1.7 | 0.00 | 0.07 | 0.07 | 92 | 996.6 |
| 20260831230734 | 75 | 169 | 0.9 | 0.9 | 0.00 | 0.07 | 0.07 | 92 | 996.6 |
| 20260831230234 | 75 | 165 | 0.9 | 2.6 | 0.00 | 0.07 | 0.07 | 92 | 996.6 |
| 20260831225734 | 75 | 145 | 0.9 | 2.6 | 0.00 | 0.07 | 0.07 | 92 | 996.6 |
| 20260831225234 | 75 | 150 | 0.9 | 3.5 | 0.00 | 0.07 | 0.07 | 92 | 996.5 |
| 20260831224734 | 76 | 173 | 0.9 | 1.7 | 0.00 | 0.07 | 0.07 | 91 | 996.7 |
| 20260831224234 | 76 | 107 | 0.9 | 1.7 | 0.00 | 0.07 | 0.07 | 91 | 996.8 |
| 20260831223734 | 76 | 86 | 0.0 | 2.6 | 0.00 | 0.07 | 0.07 | 91 | 996.8 |
| 20260831223234 | 76 | 157 | 0.0 | 2.6 | 0.00 | 0.07 | 0.07 | 91 | 996.8 |
| 20260831222734 | 77 | 144 | 0.0 | 3.5 | 0.00 | 0.07 | 0.07 | 90 | 996.7 |
| 20260831222234 | 77 | 129 | 0.0 | 0.9 | 0.00 | 0.07 | 0.07 | 90 | 996.7 |
| 20260831221734 | 77 | 153 | 0.0 | 0.0 | 0.00 | 0.07 | 0.07 | 90 | 996.7 |
| 20260831221234 | 77 | 153 | 0.0 | 0.0 | 0.00 | 0.07 | 0.07 | 90 | 996.7 |
| 20260831220734 | 77 | 153 | 0.0 | 1.7 | 0.00 | 0.07 | 0.07 | 90 | 996.7 |
| 20260831220234 | 77 | 145 | 0.0 | 1.7 | 0.00 | 0.07 | 0.07 | 89 | 996.7 |
| 20260831215734 | 77 | 167 | 0.0 | 0.0 | 0.00 | 0.07 | 0.07 | 89 | 996.7 |
| 20260831215234 | 77 | 160 | 0.0 | 0.9 | 0.00 | 0.07 | 0.07 | 88 | 997.0 |
| 20260831215054 | 77 | 146 | 0.0 | 1.7 | 0.00 | 0.07 | 0.07 | 88 | 996.9 |
| 20260831214734 | 77 | 146 | 0.0 | 1.7 | 0.00 | 0.07 | 0.07 | 88 | 996.9 |
| 20260831214234 | 78 | 167 | 0.0 | 0.9 | 0.00 | 0.07 | 0.07 | 88 | 996.9 |
| 20260831213734 | 78 | 161 | 0.0 | 2.6 | 0.00 | 0.07 | 0.07 | 87 | 996.9 |
| 20260831213234 | 78 | 147 | 0.0 | 1.7 | 0.00 | 0.07 | 0.07 | 87 | 996.9 |
| 20260831212734 | 78 | 167 | 0.0 | 2.6 | 0.00 | 0.07 | 0.07 | 86 | 997.0 |
| 20260831212234 | 78 | 169 | 0.0 | 0.0 | 0.00 | 0.07 | 0.07 | 87 | 997.0 |
| 20260831211734 | 78 | 158 | 0.0 | 1.7 | 0.00 | 0.07 | 0.07 | 86 | 997.0 |
| 20260831211234 | 79 | 165 | 0.0 | 2.6 | 0.00 | 0.07 | 0.07 | 86 | 996.9 |
| 20260831210734 | 78 | 153 | 0.0 | 1.7 | 0.00 | 0.07 | 0.07 | 86 | 996.9 |
| 20260831210234 | 78 | 161 | 0.0 | 0.0 | 0.00 | 0.07 | 0.07 | 86 | 997.0 |
| 20260831205735 | 78 | 95 | 0.0 | 0.9 | 0.00 | 0.07 | 0.07 | 85 | 997.0 |
| 20260831205234 | 78 | 161 | 0.0 | 0.0 | 0.00 | 0.07 | 0.07 | 86 | 997.0 |
| 20260831204734 | 78 | 161 | 0.0 | 0.0 | 0.00 | 0.07 | 0.07 | 86 | 997.0 |
| 20260831204234 | 78 | 172 | 0.0 | 0.9 | 0.00 | 0.07 | 0.07 | 85 | 997.2 |
| 20260831203734 | 78 | 141 | 0.0 | 0.9 | 0.00 | 0.07 | 0.07 | 85 | 997.1 |
| 20260831203234 | 78 | 167 | 0.0 | 0.0 | 0.00 | 0.07 | 0.07 | 85 | 997.2 |
| 20260831202735 | 78 | 167 | 0.0 | 0.9 | 0.00 | 0.07 | 0.07 | 85 | 997.4 |
| 20260831202234 | 79 | 167 | 0.0 | 0.9 | 0.00 | 0.07 | 0.07 | 86 | 997.3 |
| 20260831201734 | 79 | 150 | 0.0 | 1.7 | 0.00 | 0.07 | 0.07 | 84 | 997.5 |
| 20260831201235 | 79 | 161 | 0.0 | 0.0 | 0.00 | 0.07 | 0.07 | 83 | 997.6 |
| 20260831200734 | 79 | 159 | 0.0 | 0.0 | 0.00 | 0.07 | 0.07 | 82 | 997.7 |
| 20260831200234 | 80 | 167 | 0.0 | 0.0 | 0.00 | 0.07 | 0.07 | 82 | 997.7 |
| 20260831195736 | 80 | 167 | 0.0 | 0.0 | 0.00 | 0.07 | 0.07 | 81 | 997.7 |
| 20260831195234 | 80 | 148 | 0.0 | 0.0 | 0.00 | 0.07 | 0.07 | 80 | 997.7 |
| 20260831194735 | 80 | 155 | 0.0 | 1.7 | 0.00 | 0.07 | 0.07 | 80 | 997.8 |
| 20260831194235 | 81 | 124 | 0.0 | 0.0 | 0.00 | 0.07 | 0.07 | 82 | 997.8 |
| 20260831193735 | 81 | 166 | 0.0 | 0.9 | 0.00 | 0.07 | 0.07 | 82 | 997.7 |
| 20260831193235 | 81 | 165 | 0.9 | 1.7 | 0.00 | 0.07 | 0.07 | 81 | 997.7 |
| 20260831192735 | 81 | 153 | 0.9 | 3.5 | 0.00 | 0.07 | 0.07 | 80 | 997.8 |
| 20260831192236 | 81 | 178 | 0.9 | 3.5 | 0.00 | 0.07 | 0.07 | 80 | 997.7 |
| 20260831191735 | 81 | 187 | 0.9 | 3.5 | 0.00 | 0.07 | 0.07 | 80 | 997.7 |
| 20260831191235 | 82 | 159 | 0.0 | 1.7 | 0.00 | 0.07 | 0.07 | 80 | 997.7 |
| 20260831190735 | 82 | 172 | 0.9 | 1.7 | 0.00 | 0.07 | 0.07 | 80 | 997.8 |
| 20260831190235 | 83 | 171 | 0.9 | 4.3 | 0.00 | 0.07 | 0.07 | 79 | 997.9 |
| 20260831185735 | 83 | 180 | 0.9 | 2.6 | 0.00 | 0.07 | 0.07 | 79 | 998.0 |
| 20260831185235 | 83 | 152 | 0.9 | 1.7 | 0.00 | 0.07 | 0.07 | 81 | 998.1 |
| 20260831184735 | 82 | 51 | 0.9 | 3.5 | 0.00 | 0.07 | 0.07 | 80 | 998.1 |
| 20260831184235 | 82 | 140 | 0.0 | 1.7 | 0.00 | 0.07 | 0.07 | 82 | 998.2 |
| 20260831183735 | 81 | 71 | 0.0 | 1.7 | 0.00 | 0.07 | 0.07 | 82 | 998.4 |
| 20260831183235 | 81 | 136 | 0.9 | 1.7 | 0.00 | 0.07 | 0.07 | 82 | 998.5 |
| 20260831182735 | 81 | 167 | 0.9 | 1.7 | 0.00 | 0.07 | 0.07 | 80 | 998.6 |
| 20260831182235 | 81 | 55 | 0.0 | 1.7 | 0.00 | 0.07 | 0.07 | 81 | 998.5 |
| 20260831181735 | 81 | 179 | 0.9 | 2.6 | 0.00 | 0.07 | 0.07 | 82 | 998.5 |
| 20260831181235 | 81 | 140 | 0.9 | 1.7 | 0.00 | 0.07 | 0.07 | 82 | 998.5 |
| 20260831180735 | 81 | 136 | 0.9 | 1.7 | 0.00 | 0.07 | 0.07 | 81 | 998.5 |
| 20260831180235 | 81 | 270 | 0.9 | 2.6 | 0.00 | 0.07 | 0.07 | 81 | 998.4 |
| 20260831175735 | 80 | 174 | 0.0 | 2.6 | 0.00 | 0.07 | 0.07 | 83 | 998.5 |
| 20260831175235 | 80 | 259 | 0.0 | 1.7 | 0.00 | 0.07 | 0.07 | 82 | 998.5 |
| 20260831174735 | 79 | 171 | 0.9 | 2.6 | 0.00 | 0.07 | 0.07 | 84 | 998.5 |
| 20260831174235 | 79 | 165 | 0.9 | 1.7 | 0.00 | 0.07 | 0.07 | 85 | 998.6 |
| 20260831173735 | 79 | 204 | 0.0 | 2.6 | 0.00 | 0.07 | 0.07 | 85 | 998.9 |
| 20260831173235 | 79 | 197 | 0.9 | 1.7 | 0.00 | 0.07 | 0.07 | 86 | 999.0 |
| 20260831172735 | 78 | 317 | 0.9 | 3.5 | 0.00 | 0.07 | 0.07 | 89 | 999.1 |
| 20260831172235 | 78 | 5 | 0.9 | 3.5 | 0.00 | 0.07 | 0.07 | 90 | 999.2 |
| 20260831171735 | 77 | 29 | 0.9 | 2.6 | 0.00 | 0.07 | 0.07 | 93 | 999.3 |
| 20260831171235 | 77 | 345 | 0.9 | 2.6 | 0.00 | 0.07 | 0.07 | 95 | 999.4 |
| 20260831170735 | 76 | 88 | 0.9 | 2.6 | 0.00 | 0.07 | 0.07 | 97 | 999.4 |
| 20260831170235 | 75 | 311 | 1.7 | 2.6 | 0.00 | 0.07 | 0.07 | 100 | 999.4 |
| 20260831165735 | 74 | 284 | 0.9 | 3.5 | 0.00 | 0.07 | 0.07 | 100 | 999.5 |
| 20260831165235 | 75 | 16 | 0.0 | 1.7 | 0.00 | 0.07 | 0.07 | 100 | 999.4 |
| 20260831164735 | 74 | 100 | 0.9 | 1.7 | 0.00 | 0.07 | 0.07 | 100 | 999.4 |
| 20260831164235 | 74 | 95 | 0.9 | 3.5 | 0.00 | 0.07 | 0.07 | 100 | 999.6 |
| 20260831163735 | 73 | 229 | 0.9 | 2.6 | 0.00 | 0.07 | 0.07 | 100 | 999.6 |
| 20260831163235 | 72 | 331 | 0.9 | 2.6 | 0.00 | 0.07 | 0.07 | 100 | 999.7 |
| 20260831162735 | 72 | 175 | 0.0 | 1.7 | 0.00 | 0.07 | 0.07 | 100 | 999.6 |
| 20260831162235 | 71 | 111 | 0.0 | 0.9 | 0.00 | 0.07 | 0.07 | 100 | 999.7 |
| 20260831161736 | 70 | 324 | 0.0 | 1.7 | 0.00 | 0.07 | 0.07 | 100 | 999.8 |
| 20260831161235 | 70 | 120 | 0.0 | 0.0 | 0.00 | 0.07 | 0.07 | 100 | 1000.0 |
| 20260831160736 | 70 | 120 | 0.0 | 1.7 | 0.00 | 0.07 | 0.07 | 100 | 1000.1 |
| 20260831160237 | 70 | 130 | 0.0 | 0.9 | 0.00 | 0.07 | 0.07 | 100 | 1000.1 |
| 20260831155735 | 70 | 277 | 0.0 | 1.7 | 0.00 | 0.07 | 0.07 | 100 | 1000.0 |
| 20260831155235 | 70 | 53 | 0.0 | 0.0 | 0.00 | 0.07 | 0.07 | 100 | 999.9 |
| 20260831154735 | 70 | 265 | 0.0 | 0.0 | 0.00 | 0.07 | 0.07 | 100 | 1000.2 |
| 20260831154235 | 69 | 16 | 0.0 | 0.0 | 0.01 | 0.07 | 0.07 | 100 | 1000.3 |
| 20260831153735 | 69 | 327 | 0.0 | 0.0 | 0.01 | 0.07 | 0.07 | 100 | 1000.3 |
| 20260831153235 | 68 | 152 | 0.0 | 0.0 | 0.01 | 0.07 | 0.07 | 100 | 1000.3 |
| 20260831152735 | 68 | 152 | 0.0 | 0.0 | 0.01 | 0.07 | 0.07 | 100 | 1000.4 |
| 20260831152235 | 68 | 153 | 0.0 | 0.0 | 0.01 | 0.07 | 0.07 | 100 | 1000.4 |
| 20260831151735 | 68 | 152 | 0.0 | 0.9 | 0.01 | 0.08 | 0.07 | 100 | 1000.3 |
| 20260831151235 | 68 | 26 | 0.0 | 0.0 | 0.01 | 0.08 | 0.07 | 100 | 1000.5 |
| 20260831150735 | 68 | 129 | 0.0 | 0.0 | 0.01 | 0.08 | 0.07 | 100 | 1000.3 |
| 20260831150236 | 67 | 129 | 0.0 | 0.0 | 0.01 | 0.08 | 0.07 | 100 | 1000.2 |
| 20260831145735 | 67 | 36 | 0.0 | 0.0 | 0.02 | 0.08 | 0.07 | 100 | 1000.6 |
| 20260831145235 | 67 | 36 | 0.0 | 0.9 | 0.02 | 0.08 | 0.07 | 100 | 1000.6 |
| 20260831144736 | 67 | 100 | 0.0 | 0.0 | 0.02 | 0.08 | 0.07 | 100 | 1000.4 |
| 20260831144235 | 67 | 177 | 0.0 | 0.0 | 0.01 | 0.07 | 0.06 | 100 | 1000.5 |
| 20260831143736 | 67 | 177 | 0.0 | 0.9 | 0.01 | 0.07 | 0.06 | 100 | 1000.5 |
| 20260831143235 | 67 | 177 | 0.0 | 1.7 | 0.01 | 0.07 | 0.06 | 100 | 1000.4 |
| 20260831142736 | 67 | 159 | 0.0 | 0.0 | 0.02 | 0.07 | 0.06 | 100 | 1000.6 |
| 20260831142236 | 66 | 159 | 0.0 | 0.0 | 0.02 | 0.07 | 0.06 | 100 | 1000.5 |
| 20260831141736 | 66 | 151 | 0.0 | 0.0 | 0.02 | 0.07 | 0.06 | 100 | 1000.5 |
| 20260831141236 | 66 | 103 | 0.0 | 0.0 | 0.02 | 0.07 | 0.06 | 100 | 1000.6 |
| 20260831140736 | 66 | 103 | 0.0 | 0.0 | 0.02 | 0.07 | 0.06 | 100 | 1000.8 |
| 20260831140236 | 66 | 103 | 0.0 | 0.0 | 0.02 | 0.07 | 0.06 | 100 | 1000.8 |
| 20260831135736 | 66 | 103 | 0.0 | 0.9 | 0.01 | 0.06 | 0.05 | 100 | 1000.8 |
| 20260831135236 | 66 | 103 | 0.0 | 0.9 | 0.01 | 0.06 | 0.05 | 100 | 1001.0 |
| 20260831134736 | 66 | 159 | 0.0 | 0.0 | 0.01 | 0.06 | 0.05 | 100 | 1001.0 |
| 20260831134236 | 66 | 159 | 0.0 | 0.0 | 0.01 | 0.06 | 0.05 | 100 | 1001.1 |
| 20260831133736 | 66 | 159 | 0.0 | 0.9 | 0.01 | 0.06 | 0.05 | 100 | 1001.0 |
| 20260831133236 | 66 | 165 | 0.0 | 0.0 | 0.01 | 0.06 | 0.05 | 100 | 1000.8 |
| 20260831132736 | 66 | 165 | 0.0 | 0.0 | 0.00 | 0.05 | 0.04 | 100 | 1000.6 |
| 20260831132236 | 66 | 165 | 0.0 | 0.0 | 0.00 | 0.05 | 0.04 | 100 | 1000.5 |
| 20260831131736 | 66 | 165 | 0.0 | 0.9 | 0.00 | 0.05 | 0.04 | 100 | 1000.4 |
| 20260831131236 | 66 | 161 | 0.0 | 0.9 | 0.00 | 0.05 | 0.04 | 100 | 1000.3 |
| 20260831130736 | 66 | 165 | 0.9 | 0.9 | 0.00 | 0.05 | 0.04 | 100 | 1000.2 |
| 20260831130236 | 66 | 148 | 0.0 | 1.7 | 0.00 | 0.05 | 0.04 | 100 | 1000.2 |
| 20260831125736 | 66 | 155 | 0.0 | 0.9 | 0.00 | 0.05 | 0.04 | 100 | 1000.2 |
| 20260831125236 | 66 | 109 | 0.9 | 1.7 | 0.00 | 0.05 | 0.04 | 100 | 1000.2 |
| 20260831124736 | 66 | 152 | 0.9 | 2.6 | 0.00 | 0.05 | 0.04 | 100 | 1000.1 |
| 20260831124236 | 66 | 141 | 0.0 | 1.7 | 0.00 | 0.05 | 0.04 | 100 | 1000.1 |
| 20260831123736 | 66 | 165 | 0.9 | 0.9 | 0.00 | 0.05 | 0.04 | 100 | 1000.1 |
| 20260831123236 | 66 | 171 | 0.9 | 1.7 | 0.00 | 0.05 | 0.04 | 100 | 1000.0 |
| 20260831122736 | 66 | 145 | 0.9 | 2.6 | 0.01 | 0.05 | 0.04 | 100 | 999.9 |
| 20260831122236 | 66 | 139 | 0.9 | 3.5 | 0.01 | 0.05 | 0.04 | 100 | 999.8 |
| 20260831121736 | 66 | 151 | 1.7 | 3.5 | 0.01 | 0.05 | 0.04 | 100 | 999.9 |
| 20260831121236 | 66 | 169 | 1.7 | 5.2 | 0.02 | 0.05 | 0.04 | 100 | 999.5 |
| 20260831120736 | 66 | 159 | 1.7 | 5.2 | 0.03 | 0.05 | 0.04 | 100 | 999.2 |
| 20260831120236 | 66 | 153 | 1.7 | 4.3 | 0.04 | 0.05 | 0.04 | 100 | 999.3 |
| 20260831115736 | 66 | 175 | 1.7 | 4.3 | 0.04 | 0.05 | 0.04 | 100 | 999.3 |
| 20260831115236 | 65 | 130 | 1.7 | 3.5 | 0.04 | 0.05 | 0.04 | 100 | 999.3 |
| 20260831114736 | 65 | 149 | 0.9 | 4.3 | 0.04 | 0.05 | 0.04 | 100 | 999.6 |
| 20260831114236 | 65 | 145 | 0.9 | 2.6 | 0.04 | 0.05 | 0.04 | 100 | 999.7 |
| 20260831113736 | 65 | 168 | 0.9 | 2.6 | 0.04 | 0.05 | 0.04 | 100 | 999.7 |
| 20260831113236 | 65 | 132 | 0.9 | 1.7 | 0.04 | 0.05 | 0.04 | 100 | 999.7 |
| 20260831112736 | 65 | 159 | 0.9 | 2.6 | 0.03 | 0.04 | 0.03 | 100 | 999.6 |
| 20260831112236 | 65 | 149 | 0.9 | 1.7 | 0.03 | 0.04 | 0.03 | 100 | 999.8 |
| 20260831111736 | 65 | 160 | 0.9 | 1.7 | 0.03 | 0.05 | 0.03 | 100 | 999.7 |
| 20260831111236 | 65 | 155 | 0.0 | 1.7 | 0.02 | 0.04 | 0.02 | 100 | 1000.0 |
| 20260831110736 | 65 | 169 | 0.0 | 0.0 | 0.01 | 0.03 | 0.01 | 100 | 1000.1 |
| 20260831110236 | 65 | 169 | 0.0 | 0.0 | 0.00 | 0.02 | 0.00 | 100 | 1000.3 |
| 20260831105736 | 65 | 169 | 0.0 | 0.0 | 0.00 | 0.02 | 0.00 | 100 | 1000.1 |
| 20260831105236 | 65 | 169 | 0.0 | 0.0 | 0.00 | 0.02 | 0.00 | 100 | 1000.3 |
| 20260831104736 | 65 | 169 | 0.0 | 0.0 | 0.00 | 0.02 | 0.00 | 100 | 1000.3 |
| 20260831104236 | 65 | 169 | 0.0 | 0.0 | 0.00 | 0.02 | 0.00 | 100 | 1000.4 |
| 20260831103736 | 65 | 169 | 0.0 | 0.0 | 0.00 | 0.02 | 0.00 | 100 | 1000.4 |
| 20260831103236 | 65 | 169 | 0.0 | 0.0 | 0.00 | 0.02 | 0.00 | 100 | 1000.6 |
| 20260831102736 | 65 | 169 | 0.0 | 0.0 | 0.00 | 0.02 | 0.00 | 100 | 1000.6 |
| 20260831102236 | 65 | 169 | 0.0 | 0.0 | 0.00 | 0.02 | 0.00 | 100 | 1000.7 |
| 20260831101736 | 65 | 165 | 0.0 | 0.0 | 0.00 | 0.05 | 0.00 | 100 | 1000.7 |
| 20260831101236 | 65 | 165 | 0.0 | 0.0 | 0.00 | 0.05 | 0.00 | 100 | 1000.7 |
| 20260831100736 | 65 | 175 | 0.0 | 0.9 | 0.00 | 0.05 | 0.00 | 100 | 1000.7 |
| 20260831100236 | 65 | 156 | 0.0 | 0.0 | 0.00 | 0.05 | 0.00 | 100 | 1000.7 |
| 20260831095736 | 65 | 173 | 0.0 | 0.0 | 0.00 | 0.05 | 0.00 | 100 | 1000.8 |
| 20260831095236 | 65 | 161 | 0.0 | 0.0 | 0.00 | 0.05 | 0.00 | 100 | 1000.8 |
| 20260831094736 | 65 | 161 | 0.0 | 0.0 | 0.00 | 0.05 | 0.00 | 100 | 1000.8 |
| 20260831094236 | 65 | 161 | 0.0 | 0.0 | 0.00 | 0.05 | 0.00 | 100 | 1000.9 |
| 20260831093736 | 65 | 77 | 0.0 | 0.0 | 0.00 | 0.05 | 0.00 | 100 | 1000.7 |
| 20260831093236 | 65 | 164 | 0.0 | 0.9 | 0.00 | 0.05 | 0.00 | 100 | 1000.8 |
| 20260831092737 | 65 | 164 | 0.0 | 1.7 | 0.00 | 0.05 | 0.00 | 100 | 1001.0 |
| 20260831092237 | 65 | 162 | 0.0 | 0.9 | 0.00 | 0.05 | 0.00 | 100 | 1001.0 |
| 20260831091737 | 65 | 175 | 0.0 | 1.7 | 0.00 | 0.05 | 0.00 | 100 | 1001.0 |
| 20260831091237 | 65 | 165 | 0.0 | 1.7 | 0.00 | 0.05 | 0.00 | 100 | 1001.0 |
| 20260831090737 | 65 | 160 | 0.0 | 3.5 | 0.00 | 0.05 | 0.00 | 100 | 1001.1 |
| 20260831090237 | 65 | 164 | 0.0 | 0.0 | 0.00 | 0.05 | 0.00 | 100 | 1001.1 |
| 20260831085737 | 65 | 158 | 0.0 | 0.9 | 0.00 | 0.05 | 0.00 | 100 | 1001.4 |
| 20260831085237 | 65 | 158 | 0.0 | 1.7 | 0.00 | 0.05 | 0.00 | 100 | 1001.5 |
| 20260831084737 | 65 | 157 | 0.0 | 0.0 | 0.00 | 0.05 | 0.00 | 100 | 1001.2 |
| 20260831084237 | 65 | 156 | 0.0 | 0.0 | 0.00 | 0.05 | 0.00 | 100 | 1001.1 |
| 20260831083737 | 65 | 163 | 0.0 | 0.0 | 0.00 | 0.05 | 0.00 | 100 | 1001.2 |
| 20260831083237 | 65 | 163 | 0.0 | 0.0 | 0.00 | 0.05 | 0.00 | 100 | 1001.1 |